Regional Weather Roundup
Issued by NWS Portland, ME

Current Version | Previous Version | Text Only | Print | Product List | Glossary Off
Versions: 1 2 3 4 5 6 7 8 9 10 11 12 13 14 15 16 17 18 19 20 21 22 23 24 25 26 27 28 29 30 31 32 33 34 35 36 37 38 39 40 41 42 43 44 45 46 47 48 49 50
000 ASUS41 KGYX 180510 RWRGYX WEATHER ROUNDUP FOR MAINE AND NEW HAMPSHIRE NATIONAL WEATHER SERVICE GRAY ME 1200 AM EST SAT NOV 18 2017 MEZ002-005-006-010-012-015-018-020-021-024-026-027-029-180600- MAINE CITY SKY/WX TMP DP RH WIND PRES REMARKS PORTLAND CLEAR 23 17 78 VRB5 29.96S SANFORD CLEAR 24 15 68 W3 29.96S BAR HARBOR CLEAR 28 20 71 VRB7 29.87R WISCASSET CLEAR 28 17 63 W5 29.95F ROCKLAND CLEAR 27 19 72 W16 29.89S WCI 15 FRYEBURG CLEAR 17 16 95 CALM 29.94S LEWISTONAUBURN CLEAR 26 15 63 N3 29.94F AUGUSTA CLEAR 27 15 61 W12G22 29.91R WCI 17 WATERVILLE CLEAR 27 15 61 W5 29.87R BANGOR CLEAR 27 17 66 W8 29.86S GREENVILLE NOT AVBL MILLINOCKET CLEAR 24 16 71 NW18G24 29.81S WCI 10 HOULTON CLOUDY 25 18 74 NW12G18 29.78R WCI 14 PRESQUE ISLE CLOUDY 24 17 74 W14G20 29.80R WCI 12 FRENCHVILLE CLOUDY 19 14 81 NW15G24 29.75R WCI 5 CARIBOU CLOUDY 24 16 71 NW13 29.77R WCI 12 $$ NHZ002-005-008-009-011-012-014-180600- NEW HAMPSHIRE CITY SKY/WX TMP DP RH WIND PRES REMARKS PORTSMOUTH CLEAR 28 13 53 W6 29.96S ROCHESTER CLEAR 27 13 55 NW8 29.95S NASHUA CLEAR 28 18 66 NW5 29.99S MANCHESTER CLEAR 30 14 51 NW7 29.98S CONCORD CLEAR 27 14 58 NW9 29.99R LACONIA CLEAR 26 15 63 SW9 29.97R PLYMOUTH FAIR 26 13 58 W9 29.98R BERLIN CLOUDY 15 12 88 CALM 29.92F WHITEFIELD CLOUDY 16 13 88 CALM 29.97R JAFFREY CLEAR 26 16 65 CALM 29.96S KEENE CLEAR 19 15 84 CALM 30.02R LEBANON CLEAR 21 17 84 CALM 30.01R MT WASHINGTON PTCLDY 19 -29 10 NW68G79 N/A WCI -6 $$ VTZ005-007-008-180600- VERMONT CITY SKY/WX TMP DP RH WIND PRES REMARKS MONTPELIER CLOUDY 16 14 92 CALM 30.01F BURLINGTON CLOUDY 22 15 75 E6 30.04F $$ MAZ007-012-024-CTZ003-RIZ002-NYZ038-NYZ072-180600- SOUTHERN NEW ENGLAND AND NY CITY SKY/WX TMP DP RH WIND PRES REMARKS WORCESTER CLEAR 29 13 51 NW8 29.95R NANTUCKET CLEAR 38 20 48 NW18 29.98R PROVIDENCE CLEAR 29 21 72 CALM 30.01 HARTFORD CLEAR 29 18 63 W8 30.04R ALBANY PTCLDY 26 17 68 CALM 30.06F NEW YORK CITY PTCLDY 41 18 39 W12 30.07S $$ ANZ081-ANZ082-ANZ150-NHZ014-MEZ023>029-180600- COASTAL MARINE OBSERVATIONS STATION/POSITION TIME TEMP WIND PRES WAVE AIR SEA DIR/SP/G HT/PER (UTC) (F) (DEG/KT/KT) (MB) (FT/S) MOUNT DESERT ROC 0500 34 280/ 29/ 34 1010.6F MATINICUS ROCK 0400 34 290/ 30/ 32 1011.4R ISLE OF SHOALS 0400 32 300/ 16/ 18 1014.5F JEFFREYS LEDGE 0406 52 N/A 5/ 5 GEORGES BANK BUO 0350 47 53 1010.0 13/ 9 $$ .............KEY.............. WCI - WIND CHILL TC - TEMPERATURE IN CELSIUS VSB - VISIBILITY IN MILES HX - HEAT INDEX FAIR- INDICATES FEW OR NO CLOUDS BELOW 12,000 FT, WITH NO SIGNIFICANT WEATHER AND/OR OBSTRUCTIONS TO VISIBILITY.

USA.gov is the U.S. government's official web portal to all federal, state and local government web resources and services.